Flag for Switzerland Weather past 2 weeks in Aarau, Aargau, Switzerland

Now
73 °F

Mild.


Feels Like: 76 °F
Forecast: 58 / 88 °F
Wind: 6 mph from Northwest

Location: Wynau

Current Time: Aug 4, 2015 at 2:28:18 PM

Latest Report: Aug 4, 2015 at 1:00 PM


Visibility: N/A

Pressure: 30.04 "Hg

Humidity: 61%

Dew point: 59 °F

Location of AarauLocation

Historic Weather in Aarau — Graph

°F

Aarau temperature yesterday

Maximum temperature yesterday: 87 °F (at 5:00 PM)
Minimum temperature yesterday: 56 °F (at 5:00 AM)
Average temperature yesterday: 71 °F

Past Weeks' High & Low Weather Summary

 TemperatureHumidityPressure
High92 °F (Jul 21, 6:00 PM)100% (Aug 2, 6:00 AM)30.12 "Hg (Aug 2, 6:00 AM)
Low47 °F (Jul 31, 6:00 AM)27% (Jul 21, 6:00 PM)29.63 "Hg (Jul 24, 6:00 PM)
Average67 °F69%29.94 "Hg
* Reported Jul 20 1:00 PM — Aug 4 1:00 PM, Aarau, Weather by CustomWeather, © 2015

Note: Actual official high and low records may vary slightly from our data, if they occured in-between our weather recording intervals... More about our weather records

Advertising

Aarau weather history for previous 24 hours

 ConditionsComfort  
Time TempWeatherWind HumidityBarometerVisibility
1:00 PM
Tue, Aug 4
73 °FMild.6 mph61%30.04 "HgN/A
12:00 PM73 °FMild.3 mph60%30.02 "HgN/A
11:00 AM75 °FMild.7 mph58%30.00 "HgN/A
10:00 AM72 °FMild.5 mph75%29.99 "HgN/A
9:00 AM65 °FMild.3 mph84%29.98 "HgN/A
8:00 AM61 °FCool.1 mph93%29.98 "HgN/A
7:00 AM60 °FCool.No wind96%29.98 "HgN/A
6:00 AM59 °FCool.No wind98%29.98 "HgN/A
5:00 AM59 °FCool.1 mph96%29.98 "HgN/A
4:00 AM59 °FCool.1 mph95%29.98 "HgN/A
3:00 AM61 °FCool.1 mph92%29.98 "HgN/A
2:00 AM61 °FCool.2 mph96%29.99 "HgN/A
1:00 AM63 °FMild.2 mph93%29.99 "HgN/A
12:00 AM64 °FMild.No wind85%29.97 "HgN/A
10:00 PM
Mon, Aug 3
69 °FMild.1 mph71%29.96 "HgN/A
9:00 PM73 °FMild.No wind62%29.95 "HgN/A
8:00 PM80 °FWarm.1 mph51%29.93 "HgN/A
7:00 PM86 °FWarm.2 mph40%29.91 "HgN/A
6:00 PM87 °FPleasantly warm.2 mph35%29.92 "HgN/A
5:00 PM87 °FPleasantly warm.3 mph36%29.94 "HgN/A
4:00 PM86 °FPleasantly warm.5 mph39%29.95 "HgN/A
3:00 PM85 °FWarm.5 mph41%29.97 "HgN/A
2:00 PM83 °FWarm.3 mph42%29.99 "HgN/A
Weather by CustomWeather, © 2015

See weather overviewHow to use our weather pages